When you browse on this site, cookies collect data to enhance your experience and personalize the content and advertising you see.
Visit our Privacy Policy to learn more. By continuing to use the site, you agree to this use of cookies and data.
  • In Portugal
  • List of Countries
  • For 7 days
  • Water Temperature
  • Satellite Maps
  • Weather Map
  • Weather Widgets
  • user-avatar
    Login

    Hourly Weather Rechytsa

    Today, 19 February, Tuesday

    Time Temperature Precipitation Wind Pressure Humidity
    00:00 -2°C° 0 mm 1 mps 757 mmHg 86%
    01:00 -2°C° 0 mm 1 mps 757 mmHg 86%
    02:00 -3°C° 0 mm 1 mps 757 mmHg 83%
    03:00 -3°C° 0 mm 1 mps 757 mmHg 83%
    04:00 -5°C° 0 mm 2 mps 757 mmHg 83%
    05:00 -5°C° 0 mm 2 mps 756 mmHg 83%
    06:00 -5°C° 0 mm 2 mps 756 mmHg 83%
    07:00 -6°C° 0 mm 3 mps 756 mmHg 83%
    08:00 -5°C° 0 mm 3 mps 756 mmHg 82%
    09:00 -4°C° 0 mm 3 mps 755 mmHg 80%
    10:00 -1°C° 0 mm 3 mps 755 mmHg 78%
    11:00 -1°C° 0 mm 4 mps 755 mmHg 75%
    12:00 0°C° 0 mm 4 mps 754 mmHg 75%
    13:00 0°C° 0 mm 4 mps 753 mmHg 75%
    14:00 +1°C° 0 mm 4 mps 753 mmHg 74%
    15:00 +1°C° 0 mm 4 mps 752 mmHg 75%
    16:00 +1°C° 0 mm 4 mps 752 mmHg 75%
    17:00 0°C° 0 mm 4 mps 751 mmHg 75%
    18:00 0°C° 0 mm 5 mps 750 mmHg 78%
    19:00 0°C° 0 mm 5 mps 750 mmHg 81%
    20:00 0°C° 0 mm 5 mps 749 mmHg 84%
    21:00 0°C° 0 mm 5 mps 749 mmHg 86%
    22:00 0°C° 0 mm 5 mps 748 mmHg 88%
    23:00 0°C° 0 mm 5 mps 748 mmHg 90%

    Tomorrow, 20 February, Wednesday

    Time Temperature Precipitation Wind Pressure Humidity
    00:00 -1°C° 0 mm 5 mps 747 mmHg 91%
    01:00 -1°C° 0 mm 4 mps 747 mmHg 91%
    02:00 -1°C° 0 mm 4 mps 747 mmHg 92%
    03:00 -1°C° 0 mm 4 mps 746 mmHg 93%
    04:00 -1°C° 0 mm 4 mps 746 mmHg 93%
    05:00 -2°C° 0 mm 4 mps 745 mmHg 94%
    06:00 -1°C° 0.2 mm 4 mps 745 mmHg 94%
    07:00 -1°C° 0.2 mm 4 mps 745 mmHg 95%
    08:00 0°C° 0.2 mm 4 mps 745 mmHg 96%
    09:00 0°C° 0 mm 4 mps 745 mmHg 95%
    10:00 +1°C° 0 mm 4 mps 745 mmHg 95%
    11:00 +1°C° 0 mm 4 mps 746 mmHg 95%
    12:00 +1°C° 0 mm 4 mps 746 mmHg 94%
    13:00 +1°C° 0 mm 4 mps 746 mmHg 93%
    14:00 +1°C° 0 mm 4 mps 746 mmHg 93%
    15:00 +1°C° 0 mm 4 mps 746 mmHg 90%
    16:00 +1°C° 0 mm 4 mps 746 mmHg 87%
    17:00 +1°C° 0 mm 4 mps 745 mmHg 84%
    18:00 +1°C° 0 mm 4 mps 745 mmHg 84%
    19:00 0°C° 0 mm 4 mps 745 mmHg 83%
    20:00 0°C° 0 mm 5 mps 745 mmHg 83%
    21:00 0°C° 0.1 mm 5 mps 745 mmHg 83%
    22:00 0°C° 0.1 mm 5 mps 745 mmHg 84%
    23:00 -1°C° 0.1 mm 6 mps 745 mmHg 84%

    Day after tomorrow, 21 February, Thursday

    Time Temperature Precipitation Wind Pressure Humidity
    00:00 -2°C° 0.1 mm 6 mps 745 mmHg 81%
    01:00 -3°C° 0.1 mm 6 mps 745 mmHg 79%
    02:00 -4°C° 0.1 mm 6 mps 746 mmHg 76%
    03:00 -4°C° 0 mm 6 mps 746 mmHg 74%
    04:00 -5°C° 0 mm 6 mps 746 mmHg 72%
    05:00 -5°C° 0 mm 6 mps 746 mmHg 70%
    06:00 -5°C° 0 mm 6 mps 747 mmHg 70%
    07:00 -5°C° 0 mm 6 mps 747 mmHg 69%
    08:00 -6°C° 0 mm 7 mps 748 mmHg 69%
    09:00 -6°C° 0 mm 7 mps 748 mmHg 67%
    10:00 -6°C° 0 mm 7 mps 748 mmHg 65%
    11:00 -6°C° 0 mm 7 mps 748 mmHg 63%
    12:00 -4°C° 0 mm 7 mps 748 mmHg 63%
    13:00 -4°C° 0 mm 7 mps 749 mmHg 62%
    14:00 -4°C° 0 mm 7 mps 749 mmHg 61%
    15:00 -6°C° 0 mm 7 mps 749 mmHg 62%
    16:00 -5°C° 0 mm 6 mps 750 mmHg 63%
    17:00 -6°C° 0 mm 5 mps 750 mmHg 65%
    18:00 -6°C° 0 mm 5 mps 750 mmHg 65%
    19:00 -5°C° 0 mm 4 mps 751 mmHg 65%
    20:00 -5°C° 0 mm 4 mps 751 mmHg 65%
    21:00 -7°C° 0 mm 4 mps 751 mmHg 66%
    22:00 -7°C° 0 mm 4 mps 752 mmHg 68%
    23:00 -7°C° 0 mm 4 mps 752 mmHg 69%

    22 February, Friday

    Time Temperature Precipitation Wind Pressure Humidity
    00:00 -7°C° 0 mm 4 mps 752 mmHg 70%
    01:00 -8°C° 0 mm 4 mps 753 mmHg 70%
    02:00 -8°C° 0 mm 4 mps 753 mmHg 71%
    03:00 -8°C° 0 mm 5 mps 753 mmHg 70%
    04:00 -10°C° 0 mm 5 mps 754 mmHg 69%
    05:00 -11°C° 0 mm 6 mps 754 mmHg 68%
    06:00 -11°C° 0 mm 6 mps 755 mmHg 68%
    07:00 -12°C° 0 mm 6 mps 756 mmHg 68%
    08:00 -12°C° 0 mm 6 mps 756 mmHg 67%
    09:00 -12°C° 0 mm 6 mps 757 mmHg 65%
    10:00 -11°C° 0 mm 6 mps 757 mmHg 63%
    11:00 -11°C° 0 mm 6 mps 758 mmHg 61%
    12:00 -10°C° 0 mm 6 mps 758 mmHg 59%
    13:00 -10°C° 0 mm 6 mps 758 mmHg 58%
    14:00 -9°C° 0 mm 6 mps 759 mmHg 56%
    15:00 -9°C° 0 mm 6 mps 759 mmHg 57%
    16:00 -8°C° 0 mm 5 mps 759 mmHg 59%
    17:00 -8°C° 0 mm 5 mps 759 mmHg 60%
    18:00 -8°C° 0 mm 5 mps 759 mmHg 61%
    19:00 -8°C° 0 mm 5 mps 760 mmHg 61%
    20:00 -8°C° 0 mm 5 mps 760 mmHg 61%
    21:00 -10°C° 0 mm 5 mps 760 mmHg 64%
    22:00 -10°C° 0 mm 6 mps 760 mmHg 66%
    23:00 -10°C° 0 mm 6 mps 760 mmHg 68%

    23 February, Saturday

    Time Temperature Precipitation Wind Pressure Humidity
    00:00 -10°C° 0 mm 6 mps 760 mmHg 68%
    01:00 -11°C° 0 mm 5 mps 761 mmHg 68%
    02:00 -11°C° 0 mm 5 mps 761 mmHg 68%
    03:00 -12°C° 0 mm 5 mps 761 mmHg 68%
    04:00 -12°C° 0 mm 5 mps 762 mmHg 68%
    05:00 -13°C° 0 mm 5 mps 762 mmHg 67%
    06:00 -13°C° 0 mm 5 mps 762 mmHg 68%
    07:00 -13°C° 0 mm 5 mps 763 mmHg 69%
    08:00 -14°C° 0 mm 5 mps 763 mmHg 69%
    09:00 -12°C° 0 mm 4 mps 763 mmHg 67%
    10:00 -12°C° 0 mm 4 mps 763 mmHg 65%
    11:00 -11°C° 0 mm 4 mps 764 mmHg 63%
    12:00 -11°C° 0 mm 4 mps 763 mmHg 62%
    13:00 -10°C° 0 mm 4 mps 763 mmHg 62%
    14:00 -10°C° 0 mm 4 mps 763 mmHg 62%
    15:00 -10°C° 0 mm 4 mps 763 mmHg 64%
    16:00 -10°C° 0 mm 4 mps 763 mmHg 66%
    17:00 -10°C° 0 mm 4 mps 763 mmHg 69%
    18:00 -10°C° 0 mm 4 mps 763 mmHg 70%
    19:00 -10°C° 0 mm 4 mps 764 mmHg 71%
    20:00 -10°C° 0 mm 4 mps 764 mmHg 73%
    21:00 -10°C° 0 mm 4 mps 764 mmHg 74%
    22:00 -10°C° 0 mm 3 mps 764 mmHg 75%
    23:00 -10°C° 0 mm 3 mps 764 mmHg 76%

    24 February, Sunday

    Time Temperature Precipitation Wind Pressure Humidity
    00:00 -10°C° 0 mm 3 mps 764 mmHg 77%
    01:00 -10°C° 0 mm 3 mps 764 mmHg 77%
    02:00 -10°C° 0 mm 2 mps 765 mmHg 78%
    03:00 -10°C° 0 mm 2 mps 765 mmHg 78%
    04:00 -12°C° 0 mm 3 mps 765 mmHg 77%
    05:00 -12°C° 0 mm 3 mps 765 mmHg 77%
    06:00 -12°C° 0 mm 3 mps 765 mmHg 76%
    07:00 -12°C° 0 mm 3 mps 765 mmHg 75%
    08:00 -12°C° 0 mm 3 mps 766 mmHg 74%
    09:00 -10°C° 0 mm 3 mps 766 mmHg 68%
    10:00 -9°C° 0 mm 3 mps 766 mmHg 62%
    11:00 -8°C° 0 mm 3 mps 766 mmHg 57%
    12:00 -7°C° 0 mm 3 mps 766 mmHg 54%
    13:00 -7°C° 0 mm 3 mps 766 mmHg 52%
    14:00 -6°C° 0 mm 3 mps 766 mmHg 49%
    15:00 -6°C° 0 mm 3 mps 766 mmHg 52%
    16:00 -5°C° 0 mm 2 mps 765 mmHg 55%
    17:00 -5°C° 0 mm 2 mps 765 mmHg 58%
    18:00 -6°C° 0 mm 2 mps 766 mmHg 62%
    19:00 -4°C° 0 mm 1 mps 766 mmHg 65%
    20:00 -6°C° 0 mm 1 mps 766 mmHg 69%
    21:00 -6°C° 0 mm 1 mps 766 mmHg 69%
    22:00 -6°C° 0 mm 1 mps 766 mmHg 69%
    23:00 -6°C° 0 mm 0 mps 766 mmHg 69%
    Show more